Skip Page Navigation
NASA JPL Caltech
NASA Logo - Jet Propulsion Laboratory + View the NASA Portal
+ Near-Earth Object (NEO) Program
Search JPL
JPL Home Earth Solar System Stars & Galaxies Technology
JPL Solar System Dynamics
BODIES ORBITS EPHEMERIDES TOOLS PHYSICAL DATA DISCOVERY FAQ SITE MAP
JPL Small-Body Database Browser
Search: [ help ]  
32207 Mairepercy (2000 OQ7)
Classification: Main-belt Asteroid          SPK-ID: 2032207
Ephemeris | Orbit Diagram | Orbital Elements | Physical Parameters | Discovery Circumstances ]

[ hide orbit diagram ]
Orbit Diagram
Note: Make sure you have Java enabled on your browser to see the applet. This applet is provided as a 3D orbit visualization tool. The applet was implemented using 2-body methods, and hence should not be used for determining accurate long-term trajectories (over several years or decades) or planetary encounter circumstances. For accurate long-term ephemerides, please instead use our Horizons system.
Orbit Viewer

Additional Notes: the orbits shown in the applet are color coded. The planets are white lines, and the asteroid/comet is a blue line. The bright white line indicates the portion of the orbit that is above the ecliptic plane, and the darker portion is below the ecliptic plane. Likewise for the asteroid/comet orbit, the light blue indicates the portion above the ecliptic plane, and the dark blue the portion below the ecliptic plane.

Orbit Viewer applet originally written and kindly provided by Osamu Ajiki (AstroArts), and further modified by Ron Baalke (JPL).


Orbital Elements at Epoch 2456400.5 (2013-Apr-18.0) TDB
Reference: MPO229262 (heliocentric ecliptic J2000)
 Element Value Uncertainty (1-sigma)   Units 
e 0.0533586 n/a  
a 2.6983943 n/a AU
q 2.5544118 n/a AU
i 2.11237 n/a deg
node 210.56503 n/a deg
peri 218.07546 n/a deg
M 195.83491 n/a deg
tp 2457138.8033635
(2015-Apr-26.30336350)
n/a JED
period 1619.0361230
4.43
n/a
n/a
d
yr
n 0.22235452 n/a deg/d
Q 2.8423768 n/a AU
  Orbit Determination Parameters
   # obs. used (total)      735  
   first obs. used      1996-??-??  
   last obs. used      2012-04-29  
   # oppositions      11  
   planetary ephem.      DE403  
   condition code      0  
   fit RMS      0.52  
   data source      MPC:mpn  
   producer      MPCLINUX  

Additional Information
 T_jup = 3.366 

Ephemeris | Orbit Diagram | Orbital Elements | Physical Parameters | Discovery Circumstances ]

Physical Parameter Table
Parameter Symbol Value Units Sigma Reference Notes
absolute magnitude H 14.4 mag n/a PDS3 (MPO 19038)  

32207 Mairepercy           Discovered 2000 July 28 by M. Collins and M. Gahran at Anza.
Maire Percy (b. 1939) conducts research at the University of Toronto in risk factors for human disease. She identifies factors that could lead to the cure or prevention of human disorders, including diabetes, Alzheimer's disease and Alzheimer-like dementia in Down Syndrome. She is the wife of astronomer John R. Percy.
NOTE: some special characters may not display properly (any characters within {} are an attempt to place the proper accent above a character)
Reference: 20060613/MPCPages.arcLast Updated: 2008-05-22

Alternate Designations
 2000 OQ7 = 1999 HH11 
Ephemeris | Orbit Diagram | Orbital Elements | Physical Parameters | Discovery Circumstances ]
ABOUT SSD CREDITS/AWARDS PRIVACY/COPYRIGHT GLOSSARY LINKS
FirstGov 2013-May-20 06:38 UT
(server date/time)  
NASA Home Page
Site Manager:   Donald K. Yeomans
Webmaster  Alan B. Chamberlin